Weather History for Quincy, IL

Change the Weather History Date:

Monday, February 24, 2014

  Actual Average Record
Temperature  
Mean Temperature 24 °F 34 °F  
Max Temperature 27 °F 42 °F 73 °F (1930)
Min Temperature 20 °F 25 °F -2 °F (1989)
Degree Days  
Heating Degree Days 41 31  
Month to date heating degree days 1083 835  
Since 1 July heating degree days 4708 4221  
Cooling Degree Days 0 0  
Month to date cooling degree days 0 0  
Year to date cooling degree days 0 0  
Moisture  
Dew Point 12 °F    
Average Humidity 64    
Maximum Humidity 77    
Minimum Humidity 50    
Precipitation  
Precipitation 0.00 in 0.08 in 1.59 in (2001)
Month to date precipitation 1.42 1.56  
Year to date precipitation 2.12 3.08  
Sea Level Pressure  
Sea Level Pressure 30.35 in    
Wind  
Wind Speed 6 mph (North)    
Max Wind Speed 12 mph    
Max Gust Speed 13 mph    
Visibility 10 miles    
Events      
T = Trace of Precipitation, MM = Missing Value Source: NWS Daily Summary

Daily Weather History Graph

Daily Weather History Graph

Search for Another Location

Airport:

Trip Planner

Search our weather history database for the weather conditions in past years. The results will help you decide how hot, cold, wet, or windy it might be!

Date:

Astronomy

Feb. 24, 2014 Rise Set
Actual Time 6:45 AM CST 5:51 PM CST
Civil Twilight 6:18 AM CST 6:18 PM CST
Nautical Twilight 5:46 AM CST 6:49 PM CST
Astronomical Twilight 5:15 AM CST 7:21 PM CST
Moon 2:44 AM CST (2/24) 12:52 PM CST (2/24)
Length of Visible Light 12h 00m
Length of Day
11h 05m
Waning Crescent, 28% of the Moon is Illuminated
Feb 24
Waning Crescent
Mar 1
New
Mar 8
First Quarter
Mar 16
Full
Mar 23
Last Quarter

Hourly Weather History & Observations

Time (CST) Temp. Windchill Dew Point Humidity Pressure Visibility Wind Dir Wind Speed Gust Speed Precip Events Conditions
12:54 AM 19.9 °F 12.1 °F 12.9 °F 74% 30.37 in - NNW 5.8 mph - N/A   Clear
1:54 AM 19.9 °F 11.1 °F 12.9 °F 74% 30.36 in - NNW 6.9 mph - N/A   Clear
2:54 AM 19.9 °F 13.4 °F 12.9 °F 74% 30.36 in - WNW 4.6 mph - N/A   Clear
3:54 AM 21.0 °F 12.4 °F 12.9 °F 71% 30.36 in - NNW 6.9 mph - N/A   Clear
4:54 AM 21.0 °F 10.6 °F 12.0 °F 68% 30.37 in - NNW 9.2 mph - N/A   Clear
5:54 AM 21.9 °F 11.7 °F 12.0 °F 66% 30.38 in - NNW 9.2 mph - N/A   Mostly Cloudy
6:54 AM 21.9 °F 13.4 °F 12.0 °F 66% 30.38 in - NNW 6.9 mph - N/A   Overcast
7:54 AM 23.0 °F 15.8 °F 12.0 °F 63% 30.39 in - North 5.8 mph - N/A   Overcast
8:54 AM 23.0 °F 14.7 °F 12.0 °F 63% 30.41 in - NNW 6.9 mph - N/A   Overcast
9:54 AM 24.1 °F 15.2 °F 10.9 °F 57% 30.41 in - North 8.1 mph - N/A   Overcast
10:54 AM 25.0 °F 19.3 °F 10.9 °F 55% 30.40 in - NNE 4.6 mph - N/A   Overcast
11:54 AM 25.0 °F - 10.9 °F 55% 30.40 in - Calm Calm - N/A   Overcast
12:54 PM 26.1 °F 20.5 °F 10.9 °F 53% 30.39 in 10.0 mi Variable 4.6 mph - N/A   Overcast
1:54 PM 26.1 °F 20.5 °F 10.9 °F 53% 30.35 in 10.0 mi NW 4.6 mph - N/A   Overcast
2:54 PM 25.0 °F - 10.9 °F 55% 30.33 in 10.0 mi Calm Calm - N/A   Overcast
3:54 PM 26.1 °F 21.9 °F 10.9 °F 53% 30.31 in 10.0 mi NNE 3.5 mph - N/A   Overcast
4:54 PM 26.1 °F 19.4 °F 10.9 °F 53% 30.30 in 10.0 mi NE 5.8 mph - N/A   Overcast
5:54 PM 25.0 °F 18.1 °F 10.9 °F 55% 30.29 in 10.0 mi East 5.8 mph - N/A   Overcast
6:54 PM 25.0 °F 18.1 °F 10.0 °F 53% 30.29 in 10.0 mi ENE 5.8 mph - N/A   Overcast
7:54 PM 24.1 °F 16.0 °F 14.0 °F 65% 30.30 in 10.0 mi NE 6.9 mph - N/A   Overcast
8:54 PM 23.0 °F 13.9 °F 16.0 °F 74% 30.30 in 10.0 mi NE 8.1 mph - N/A   Overcast
9:54 PM 21.9 °F 12.5 °F 16.0 °F 78% 30.28 in 10.0 mi NE 8.1 mph - N/A   Overcast
10:54 PM 21.9 °F 11.7 °F 16.0 °F 78% 30.29 in 10.0 mi NNE 9.2 mph - N/A   Overcast
11:54 PM 21.9 °F 13.4 °F 16.0 °F 78% 30.29 in 10.0 mi NNE 6.9 mph - N/A   Overcast